TimeEDT,TemperatureF,Dew PointF,Humidity,Sea Level PressureIn,VisibilityMPH,Wind Direction,Wind SpeedMPH,Gust SpeedMPH,PrecipitationIn,Events,Conditions,WindDirDegrees,DateUTC
1:53 AM,66.0,62.1,87,29.91,9.0,South,5.8,-,N/A,,Mostly Cloudy,170,2012-10-14 05:53:00
2:53 AM,66.0,62.1,87,29.89,10.0,South,5.8,-,N/A,,Scattered Clouds,180,2012-10-14 06:53:00
3:53 AM,66.0,61.0,84,29.88,10.0,South,6.9,-,N/A,,Overcast,180,2012-10-14 07:53:00
4:53 AM,66.0,61.0,84,29.86,10.0,South,5.8,-,N/A,,Overcast,170,2012-10-14 08:53:00
5:53 AM,66.0,61.0,84,29.85,10.0,SSE,6.9,-,N/A,,Mostly Cloudy,160,2012-10-14 09:53:00
6:03 AM,66.2,60.8,83,29.85,10.0,South,9.2,-,N/A,,Mostly Cloudy,170,2012-10-14 10:03:00
6:27 AM,66.2,60.8,83,29.85,10.0,South,8.1,-,N/A,,Mostly Cloudy,170,2012-10-14 10:27:00
6:53 AM,66.9,61.0,81,29.82,10.0,South,8.1,-,N/A,,Overcast,180,2012-10-14 10:53:00
7:53 AM,68.0,61.0,78,29.79,10.0,South,12.7,23.0,0.00,,Overcast,190,2012-10-14 11:53:00
8:06 AM,68.0,60.8,78,29.80,10.0,South,12.7,19.6,N/A,,Overcast,190,2012-10-14 12:06:00
8:53 AM,66.9,61.0,81,29.79,8.0,SSW,18.4,28.8,0.01,Rain,Light Rain,200,2012-10-14 12:53:00
9:53 AM,68.0,61.0,78,29.75,10.0,South,17.3,28.8,0.01,,Overcast,190,2012-10-14 13:53:00
10:25 AM,68.0,60.8,78,29.73,10.0,South,12.7,23.0,N/A,,Mostly Cloudy,180,2012-10-14 14:25:00
10:53 AM,68.0,59.0,73,29.72,10.0,South,13.8,26.5,N/A,,Scattered Clouds,180,2012-10-14 14:53:00
11:21 AM,68.0,59.0,73,29.74,10.0,South,15.0,25.3,N/A,,Mostly Cloudy,190,2012-10-14 15:21:00
11:53 AM,69.1,59.0,70,29.72,10.0,South,16.1,25.3,N/A,,Mostly Cloudy,180,2012-10-14 15:53:00
12:17 PM,69.8,60.8,73,29.72,10.0,South,15.0,27.6,N/A,,Overcast,190,2012-10-14 16:17:00
12:53 PM,71.1,59.0,66,29.71,10.0,SSW,10.4,28.8,N/A,,Overcast,200,2012-10-14 16:53:00
1:53 PM,71.1,57.9,63,29.69,10.0,SSW,19.6,32.2,N/A,,Overcast,210,2012-10-14 17:53:00
2:53 PM,72.0,59.0,64,29.65,10.0,SSW,16.1,32.2,N/A,,Scattered Clouds,200,2012-10-14 18:53:00
4:53 PM,70.0,54.0,57,29.62,10.0,SW,18.4,35.7,N/A,,Scattered Clouds,220,2012-10-14 20:53:00
5:53 PM,69.1,53.1,57,29.62,10.0,SSW,16.1,32.2,N/A,,Mostly Cloudy,210,2012-10-14 21:53:00
6:53 PM,68.0,54.0,61,29.61,10.0,SSW,17.3,32.2,N/A,,Overcast,210,2012-10-14 22:53:00
7:36 PM,60.8,57.2,88,29.67,1.5,WSW,12.7,36.8,0.19,Rain,Heavy Rain,240,2012-10-14 23:36:00
7:39 PM,60.8,57.2,88,29.68,1.2,WSW,13.8,36.8,0.24,Rain,Heavy Rain,240,2012-10-14 23:39:00
7:45 PM,60.8,57.2,88,29.67,2.0,West,13.8,23.0,0.25,Rain,Rain,270,2012-10-14 23:45:00
7:53 PM,60.1,57.9,93,29.67,5.0,WSW,13.8,27.6,0.27,Rain,Rain,250,2012-10-14 23:53:00
8:20 PM,60.8,57.2,88,29.69,10.0,West,9.2,19.6,0.02,,Overcast,260,2012-10-15 00:20:00
8:53 PM,60.1,54.0,80,29.70,10.0,West,17.3,31.1,0.02,,Overcast,280,2012-10-15 00:53:00
9:23 PM,57.2,53.6,88,29.74,10.0,West,17.3,24.2,N/A,,Mostly Cloudy,280,2012-10-15 01:23:00
9:53 PM,55.9,51.1,84,29.76,10.0,WNW,20.7,33.4,0.01,,Overcast,290,2012-10-15 01:53:00
10:53 PM,55.0,48.9,80,29.79,10.0,WNW,19.6,28.8,N/A,,Overcast,290,2012-10-15 02:53:00
11:53 PM,54.0,48.9,83,29.81,10.0,WNW,16.1,25.3,N/A,,Overcast,290,2012-10-15 03:53:00